FW2315 Weather Reports


Display with metric or nautical units.
time (UTC)temp
F
wind
direction
speed
MPH
gust
MPH
rain 1hr
in
rain 24hr
in
rain mn
in
humidity
%
barometer
mb
20260506151559 52 325 1.0 4.0 0.16 0.97 0.97 90 1011.9
20260506150057 53 333 3.0 10.0 0.22 0.94 0.94 90 1011.5
20260506144600 53 310 4.0 9.0 0.23 0.93 0.93 92 1010.9
20260506143055 54 291 3.0 5.0 0.19 0.89 0.89 91 1010.8
20260506141557 54 313 2.0 4.0 0.11 0.81 0.81 90 1010.9
20260506140101 55 210 1.0 6.0 0.02 0.72 0.72 90 1010.9
20260506134551 55 277 1.0 7.0 0.00 0.70 0.70 90 1010.3
20260506133051 55 276 1.0 5.0 0.00 0.70 0.70 87 1010.2
20260506131550 55 288 1.0 9.0 0.01 0.70 0.70 89 1010.0
20260506130053 56 288 2.0 4.0 0.01 0.70 0.70 88 1009.8
20260506124547 56 230 1.0 3.0 0.01 0.70 0.70 89 1009.9
20260506123046 56 5 0.0 3.0 0.01 0.70 0.70 87 1010.1
20260506121545 56 76 1.0 3.0 0.00 0.69 0.69 89 1009.9
20260506120050 55 302 1.0 5.0 0.00 0.69 0.69 89 1009.7
20260506114550 56 268 6.0 9.0 0.00 0.69 0.69 91 1009.9
20260506113043 56 330 2.0 8.0 0.01 0.69 0.69 91 1009.9
20260506111543 56 266 1.0 5.0 0.02 0.69 0.69 89 1010.3
20260506110038 55 268 1.0 4.0 0.04 0.69 0.69 90 1010.3
20260506104541 54 84 0.0 0.0 0.11 0.69 0.69 91 1010.5
20260506103035 54 69 0.0 4.0 0.14 0.68 0.68 93 1010.5
20260506101537 54 42 0.0 3.0 0.18 0.67 0.67 94 1010.6
20260506100038 53 62 2.0 6.0 0.17 0.64 0.64 94 1010.9
20260506094533 54 103 3.0 6.0 0.11 0.60 0.57 94 1010.5
20260506093052 54 268 0.0 3.0 0.07 0.56 0.54 94 1010.2
20260506091533 54 198 1.0 2.0 0.03 0.51 0.49 94 1009.9
20260506090034 54 144 1.0 2.0 0.03 0.49 0.47 94 1009.6
20260506084530 54 68 1.0 3.0 0.06 0.60 0.47 94 1009.9
20260506083025 54 61 0.0 2.0 0.07 0.60 0.47 94 1010.0
20260506081525 54 61 0.0 1.0 0.07 0.59 0.46 94 1010.1
20260506073021 53 68 0.0 2.0 0.03 0.56 0.40 95 1010.3
20260506071519 53 57 0.0 3.0 0.03 0.56 0.39 95 1010.5
20260506061517 53 163 0.0 0.0 0.09 0.53 0.36 95 1010.7
20260506044515 53 50 0.0 0.0 0.01 0.41 0.24 95 1010.7
20260506043011 53 315 0.0 2.0 0.01 0.41 0.24 95 1010.7
20260506041511 53 315 0.0 0.0 0.01 0.41 0.24 95 1010.7
20260506040011 53 315 0.0 2.0 0.01 0.41 0.24 95 1010.7
20260506034508 53 36 0.0 2.0 0.00 0.40 0.23 95 1010.9
20260506033006 53 291 0.0 0.0 0.01 0.40 0.23 95 1011.0
20260506031506 53 291 0.0 0.0 0.02 0.40 0.23 95 1011.0
20260506030004 53 291 0.0 2.0 0.02 0.40 0.23 95 1011.2
20260506024504 53 291 1.0 2.0 0.02 0.40 0.23 95 1011.6
20260506023100 53 305 1.0 3.0 0.01 0.39 0.22 95 1011.8
20260506021558 53 32 0.0 0.0 0.00 0.38 0.21 94 1012.0
20260506020123 53 51 0.0 1.0 0.03 0.38 0.21 94 1012.0
20260506014556 53 55 0.0 0.0 0.03 0.38 0.21 94 1012.1
20260506013056 53 43 0.0 0.0 0.04 0.38 0.21 94 1012.1
20260506011559 53 304 0.0 0.0 0.05 0.38 0.21 94 1012.2
20260506010053 53 304 0.0 0.0 0.05 0.35 0.18 94 1012.5
20260506004552 53 304 0.0 0.0 0.06 0.34 0.17 94 1012.4
20260506003051 53 304 0.0 0.0 0.09 0.34 0.17 94 1012.6
20260506001601 53 304 0.0 1.0 0.11 0.33 0.16 94 1012.9
20260506000109 53 49 0.0 0.0 0.10 0.30 0.13 93 1012.9
20260505234547 53 49 0.0 0.0 0.11 0.28 0.11 93 1012.9
20260505233051 53 49 0.0 0.0 0.08 0.25 0.08 93 1013.2
20260505231552 53 49 0.0 0.0 0.05 0.22 0.05 93 1013.3
20260505230049 53 49 0.0 2.0 0.03 0.20 0.03 92 1013.2
20260505224548 53 49 1.0 2.0 0.00 0.17 0.00 92 1013.2
20260505223042 53 61 0.0 0.0 0.00 0.17 0.00 92 1013.3
20260505221548 53 61 0.0 0.0 0.00 0.17 0.00 92 1013.4
20260505220039 53 61 0.0 0.0 0.00 0.17 0.00 92 1013.5
20260505214544 53 61 0.0 2.0 0.00 0.17 0.17 91 1013.7
20260505213037 54 148 0.0 0.0 0.00 0.17 0.17 92 1013.8
20260505211604 54 148 0.0 0.0 0.00 0.17 0.17 91 1014.0
20260505210042 54 148 0.0 0.0 0.00 0.17 0.17 91 1014.1
20260505204548 54 148 0.0 0.0 0.00 0.17 0.17 91 1014.2
20260505203035 54 148 0.0 1.0 0.00 0.17 0.17 91 1014.1
20260505201538 54 148 0.0 2.0 0.00 0.17 0.17 92 1013.9
20260505200037 54 148 0.0 0.0 0.00 0.17 0.17 91 1014.0
20260505194534 54 360 0.0 0.0 0.00 0.17 0.17 92 1013.9
20260505193033 54 149 0.0 0.0 0.00 0.17 0.17 91 1013.8
20260505191535 55 149 0.0 0.0 0.00 0.17 0.17 91 1013.7
20260505190032 55 150 0.0 0.0 0.00 0.17 0.17 90 1013.5
20260505184539 55 148 0.0 0.0 0.00 0.17 0.17 89 1013.5
20260505183030 55 148 0.0 0.0 0.00 0.17 0.17 89 1013.4
20260505181643 55 148 0.0 0.0 0.00 0.17 0.17 89 1013.3
20260505180030 55 148 0.0 0.0 0.00 0.17 0.17 89 1013.4
20260505174537 55 148 0.0 0.0 0.00 0.17 0.17 89 1013.4
20260505173028 55 146 0.0 2.0 0.00 0.17 0.17 89 1013.4
20260505171537 55 146 0.0 3.0 0.00 0.17 0.17 89 1013.4
20260505170028 55 236 1.0 3.0 0.00 0.17 0.17 88 1013.3
20260505164527 56 256 0.0 3.0 0.00 0.17 0.17 88 1013.2
20260505163026 56 256 0.0 0.0 0.00 0.17 0.17 88 1013.4
20260505161526 55 256 1.0 3.0 0.00 0.17 0.17 88 1013.5
20260505153035 55 223 2.0 4.0 0.00 0.17 0.17 87 1013.6